Content
SEND FEEDBACK

Daily
Averages
Monthly
Summary
United States of America

BURLINGTON, NORTH CAROLINA


Home > North America > United States > North Carolina
Elevation: 638 feet     Latitude: 36 02N     Longitude: 079 28W

WEATHER
 
SELECT A DAY
Number of Records: 171,848;   Date Range: 7/1/98 - 9/19/14
 
SHARE

PRINT THIS DATA

[ ← Previous Day ]
WEATHER ALMANAC - NOVEMBER 29, 2013
[ Next Day → ]
[ °C ]   °F
Weather ElementAverageHighLow
Temperature35.6 °F50 °F (1:54 pm)21.9 °F (4:54 am)
Dewpoint20.3 °F25 °F (8:54 am)17.1 °F (4:54 am)
Humidity58.1 %88 % (7:54 am)31 % (1:54 pm)
Barometer30.56 in30.64 in (10:54 pm)30.48 in (1:54 am)
Wind Speed4.9 mph13.8 mph (10:54 am)
Wind Gust19.6 mph (9:54 am)
Weather ElementAverage
Visibility10 mi
Wind DirectionENE (63.5 °)

Weather ElementTotal
Precipitation---
Heating Degree Days29.1 (Base 65)
Averaged from 23 records on November 29, 2013
WEATHER CONDITIONS BREAKOUT
WIND DIRECTION BREAKOUT
WEATHER BY HOUR - NOVEMBER 29, 2013
[ °C ]   °F
Local TimeTemperatureDewpointHumidityBarometerVisibilityWind DirectionWind SpeedGust SpeedPrecipitationEventsConditions
1:54 AM24.1 °F19.0 °F81 %30.48 in10.0 miCalmClear
2:54 AM25.0 °F19.0 °F78 %30.48 in10.0 miCalmClear
3:54 AM26.1 °F21.9 °F84 %30.48 in9.0 miWSW (240°)4.6 mphClear
4:54 AM21.9 °F17.1 °F82 %30.48 in10.0 miCalmClear
5:54 AM23.0 °F18.0 °F81 %30.49 in10.0 miCalmClear
6:54 AM23.0 °F18.0 °F81 %30.52 in10.0 miCalmClear
7:54 AM24.1 °F21.0 °F88 %30.55 in10.0 miCalmClear
8:54 AM35.1 °F25.0 °F67 %30.56 in10.0 miVariable3.5 mphClear
9:54 AM43.0 °F19.0 °F38 %30.58 in10.0 miNorth (360°)10.4 mph19.6 mphClear
10:54 AM45.0 °F19.0 °F36 %30.58 in10.0 miNorth (360°)13.8 mphClear
11:54 AM46.9 °F19.9 °F34 %30.56 in10.0 miNE (40°)9.2 mphClear
12:54 PM48.9 °F19.9 °F32 %30.54 in10.0 miNNE (30°)10.4 mphClear
1:54 PM50.0 °F19.9 °F31 %30.54 in10.0 miNNE (20°)4.6 mphClear
2:54 PM50.0 °F19.9 °F31 %30.53 in10.0 miNE (50°)6.9 mphClear
3:54 PM48.0 °F19.9 °F33 %30.54 in10.0 miNE (40°)5.8 mphClear
4:54 PM45.0 °F21.0 °F39 %30.56 in10.0 miNE (40°)5.8 mphClear
5:54 PM39.9 °F21.9 °F49 %30.58 in10.0 miNE (40°)5.8 mphClear
6:54 PM37.0 °F21.9 °F54 %30.59 in10.0 miNE (50°)4.6 mphClear
7:54 PM35.1 °F21.9 °F59 %30.61 in10.0 miNE (40°)4.6 mphClear
8:54 PM32.0 °F21.0 °F64 %30.63 in10.0 miNNE (30°)4.6 mphClear
9:54 PM32.0 °F21.0 °F64 %30.63 in10.0 miNE (50°)5.8 mphClear
10:54 PM30.9 °F21.0 °F67 %30.64 in10.0 miNNE (30°)5.8 mphClear
11:54 PM32.0 °F21.0 °F64 %30.64 in10.0 miNE (40°)5.8 mphClear
Hourly data recorded from KBUY, located miles away from Burlington, North Carolina







STORIES FROM OUR PARTNERS